星链-30376 (STARLINK-30376 )

导读

STARLINK-30376是美国太空探索技术公司(SpaceX)星链互联网星座的卫星,由美国在2023年9月4日发射升空,属于Starlink Group 6-13星链组网批次,该卫星通过星链星座组网为全球提供高速低延迟互联网服务,是星链大规模低轨卫星互联网建设计划中的一员,为实现全球覆盖和通信组网补充了星座容量。

Basic Information
目录编号:
57782
目录名称:
STARLINK-30376
国际标识:
2023-134M
轨道中心:
EARTH
卫星名称:
星链-30376
卫星全名:
星链-30376 (STARLINK-30376 )
卫星状态:
在轨 (已飞行1096 天)
发射日期:
2023-09-04 UTC
国别 :
美国 (US)
星等 :
--
Orbit Information
数据来源 国际轨道数据
星历时间: 2026-09-04T10:08:14+0800
8小时前
查看轨道信息
半长轴: 6861.191km
偏心率: 0.0001282
轨道倾角: 43.002°
近地点辐角 273.758°
升交点赤经 266.729°
平近点角 86.313°
近地点: 482.174km
远地点: 483.934km
周期: 94.267分钟
每日圈数: 15.275784
Detailed Information
固有亮度:
5
最大亮度:
0.3
卫星平台:
Starlink v2.0 mini
覆盖范围:
全球
运营商:
太空探索技术公司
运营商所在国:
美国
制造商(研发单位):
太空探索技术公司
制造商所在国:
美国
使用方式:
暂无
Satellite Introduction
星链(Starlink)计划是由太空探索技术公司(SpaceX)提出的一个巨型低轨卫星互联网星座项目,计划在2019年至2024年间在太空搭建由约1.2万颗卫星组成的“星链”网络,其中1584颗将部署在地球上空550千米处的近地轨道,并从2020年开始工作。该卫星仍在工作。
2D Orbit Map
3D Orbit Map
Orbit Altitude Analysis Chart
Orbit Inclination Analysis Chart
Orbit Comprehensive Analysis Chart
View Comprehensive Chart
Conjunction Data List
Event ID Objects TCA Miss Dist (km) Collision Risk Probability Collision Risk Index (CRI) Action
CDM_260906-181205-778206-356821
2026-09-06T
18:12:54+0000
0.688 km
远距离
5.159837E-5 中风险 0.69
CDM_260906-150005-778206-453221
OBJECT E (64532)
2026-09-06T
15:00:01+0000
1.841 km
极远距离
3.219882E-6 低风险 0.45
CDM_260906-163805-778206-356821
2026-09-06T
16:38:44+0000
2.880 km
极远距离
8.791942E-7 极低风险 0.34